contact:dominique.lefevre@mio.osupytheas.fr, maurice.libes@osupytheas.fr, didier.mallarino@osupytheas.fr
Project:EMSO http://www.emso-fr.org/EMSO-France
Depth: 2436.0 m
Title:EMSO Ligure Ouest : Data MII capteur AQUADOPP
Date,Latitude,Longitude,X_East,Y_North,Z_Up,Amplitude_X,Amplitude_Y,Amplitude_Z,Batterie,SoundSpeed,Heading,Pitch,Roll,Pressure,TIS,Speed,Direction
, degrees North, degrees East, m.s-1, m.s-1,m.s-1, 1, 1, 1, Volt, m.s-1, degree, degree, degree, dbar, degree_C, m.s-1, degree
2019-12-24T00:04:03,42.805,6.029,0.024,0.031,0.001,101.0,107.0,98.0,13.3,1505.3,323.8,-0.7,1.8,2470.037,13.32,0.039,37.7
2019-12-24T00:07:03,42.805,6.029,0.006,0.019,0.001,101.0,107.0,98.0,13.4,1505.3,327.9,-0.7,1.8,2470.051,13.32,0.019,17.5
2019-12-24T00:10:03,42.805,6.029,-0.002,0.019,-0.027,100.0,106.0,98.0,13.4,1505.3,325.4,-0.7,1.8,2470.025,13.33,0.019,354.0
2019-12-24T00:13:03,42.805,6.029,0.017,0.016,-0.013,102.0,106.0,99.0,13.4,1505.3,326.3,-0.7,1.8,2470.051,13.33,0.023,46.7
2019-12-24T00:16:03,42.805,6.029,0.04,0.035,0.021,101.0,107.0,98.0,13.3,1505.3,327.1,-0.7,1.9,2470.04,13.33,0.053,48.8
2019-12-24T00:22:02,42.805,6.029,0.035,0.011,0.013,101.0,106.0,98.0,13.4,1505.3,328.2,-0.7,1.8,2470.069,13.31,0.036,72.6
2019-12-24T00:25:03,42.805,6.029,0.057,0.008,0.014,101.0,107.0,97.0,13.4,1505.3,323.5,-0.7,1.9,2470.031,13.32,0.057,82.0
2019-12-24T00:28:03,42.805,6.029,0.056,0.002,-0.018,100.0,107.0,99.0,13.4,1505.3,326.5,-0.7,1.9,2470.057,13.32,0.056,88.0
2019-12-24T00:31:03,42.805,6.029,0.003,0.014,-0.016,102.0,107.0,99.0,13.4,1505.3,325.3,-0.8,1.8,2470.038,13.33,0.014,12.1
2019-12-24T00:34:03,42.805,6.029,0.024,0.021,-0.008,99.0,107.0,99.0,13.3,1505.3,325.9,-0.7,1.8,2470.071,13.33,0.031,48.8
2019-12-24T00:37:03,42.805,6.029,0.009,0.029,-0.012,100.0,106.0,100.0,13.4,1505.3,323.1,-0.7,1.8,2470.079,13.33,0.03,17.2
2019-12-24T00:40:03,42.805,6.029,0.025,0.02,-0.041,100.0,106.0,99.0,13.3,1505.3,328.2,-0.7,1.8,2470.079,13.33,0.032,51.3
2019-12-24T00:43:03,42.805,6.029,0.058,0.01,0.013,101.0,108.0,98.0,13.4,1505.3,328.7,-0.7,1.9,2470.039,13.33,0.058,80.2
2019-12-24T00:46:03,42.805,6.029,0.021,0.005,-0.034,100.0,106.0,99.0,13.3,1505.3,326.8,-0.7,1.9,2470.049,13.33,0.021,76.6
2019-12-24T00:49:03,42.805,6.029,-0.009,0.026,-0.033,101.0,106.0,99.0,13.3,1505.3,322.8,-0.7,1.8,2470.077,13.33,0.027,340.9
2019-12-24T00:52:03,42.805,6.029,0.04,0.013,-0.011,100.0,107.0,99.0,13.4,1505.3,325.4,-0.7,1.9,2470.05,13.33,0.042,72.0
2019-12-24T00:55:03,42.805,6.029,0.064,0.006,0.001,101.0,105.0,98.0,13.4,1505.3,328.0,-0.7,1.8,2470.067,13.33,0.064,84.6
2019-12-24T00:58:03,42.805,6.029,0.058,0.003,-0.01,100.0,105.0,100.0,13.4,1505.3,326.4,-0.7,1.8,2470.05,13.33,0.058,87.0
2019-12-24T01:04:03,42.805,6.029,-0.013,0.008,-0.008,102.0,108.0,100.0,13.3,1505.3,327.1,-0.7,1.9,2470.107,13.31,0.015,301.6
2019-12-24T01:07:03,42.805,6.029,-0.021,0.024,-0.066,102.0,107.0,98.0,13.4,1505.3,326.1,-0.7,1.8,2470.098,13.32,0.031,318.8
2019-12-24T01:10:03,42.805,6.029,-0.031,0.021,-0.025,101.0,106.0,99.0,13.4,1505.3,324.5,-0.7,1.9,2470.086,13.32,0.037,304.1
2019-12-24T01:13:03,42.805,6.029,-0.008,0.011,-0.026,100.0,107.0,100.0,13.4,1505.3,325.0,-0.7,1.9,2470.078,13.33,0.013,324.0
2019-12-24T01:16:03,42.805,6.029,-0.004,0.001,-0.036,102.0,105.0,99.0,13.4,1505.3,327.0,-0.7,1.8,2470.047,13.33,0.004,284.0
2019-12-24T01:19:03,42.805,6.029,-0.001,0.008,-0.051,100.0,107.0,98.0,13.4,1505.3,326.3,-0.7,1.8,2470.069,13.33,0.008,352.9
2019-12-24T01:22:03,42.805,6.029,-0.058,0.006,-0.083,101.0,106.0,98.0,13.4,1505.3,327.1,-0.7,1.8,2470.083,13.33,0.058,275.9
2019-12-24T01:25:03,42.805,6.029,-0.018,-0.009,-0.048,100.0,107.0,99.0,13.4,1505.3,328.3,-0.7,1.8,2470.062,13.33,0.02,243.4
2019-12-24T01:28:03,42.805,6.029,-0.014,-0.013,-0.026,101.0,107.0,98.0,13.4,1505.3,323.9,-0.7,1.9,2470.104,13.33,0.019,227.1
2019-12-24T01:31:03,42.805,6.029,-0.057,0.008,-0.087,101.0,106.0,99.0,13.4,1505.3,324.0,-0.7,1.8,2470.051,13.33,0.057,278.0
2019-12-24T01:34:03,42.805,6.029,-0.016,0.004,-0.068,101.0,106.0,98.0,13.4,1505.3,324.5,-0.7,1.9,2470.116,13.33,0.016,284.0
2019-12-24T01:37:03,42.805,6.029,-0.016,-0.006,-0.047,102.0,106.0,99.0,13.4,1505.3,323.6,-0.7,1.9,2470.081,13.33,0.017,249.4
2019-12-24T01:40:03,42.805,6.029,0.011,-0.001,-0.036,100.0,105.0,99.0,13.4,1505.3,326.0,-0.7,1.9,2470.141,13.33,0.011,95.2
2019-12-24T01:43:03,42.805,6.029,-0.046,0.011,-0.061,100.0,105.0,99.0,13.4,1505.3,326.8,-0.7,1.8,2470.089,13.33,0.047,283.4
2019-12-24T01:46:03,42.805,6.029,-0.043,-0.008,-0.076,100.0,104.0,99.0,13.4,1505.3,326.5,-0.7,1.8,2470.066,13.33,0.043,259.5
2019-12-24T01:49:03,42.805,6.029,-0.057,0.004,-0.074,101.0,105.0,100.0,13.4,1505.3,327.6,-0.7,1.8,2470.119,13.33,0.057,274.0
2019-12-24T01:52:03,42.805,6.029,-0.049,0.006,-0.064,101.0,106.0,99.0,13.3,1505.3,325.2,-0.7,1.9,2470.109,13.33,0.049,277.0
2019-12-24T01:55:03,42.805,6.029,0.0,0.017,-0.024,102.0,104.0,98.0,13.4,1505.3,326.3,-0.7,1.8,2470.123,13.33,0.017,0.0
2019-12-24T01:58:03,42.805,6.029,-0.013,-0.014,-0.044,101.0,103.0,99.0,13.3,1505.3,323.0,-0.7,1.9,2470.089,13.33,0.019,222.9
2019-12-24T02:04:03,42.805,6.029,0.036,0.013,-0.023,101.0,103.0,98.0,13.4,1505.3,326.6,-0.7,1.8,2470.123,13.31,0.038,70.1
2019-12-24T02:07:03,42.805,6.029,0.019,0.0,-0.003,100.0,103.0,98.0,13.4,1505.3,326.3,-0.7,1.8,2470.15,13.32,0.019,90.0
2019-12-24T02:10:03,42.805,6.029,0.04,-0.009,0.005,101.0,104.0,98.0,13.3,1505.3,322.8,-0.7,1.8,2470.127,13.32,0.041,102.7
2019-12-24T02:13:03,42.805,6.029,0.005,0.01,-0.021,102.0,104.0,99.0,13.4,1505.3,326.4,-0.7,1.9,2470.13,13.32,0.011,26.6
2019-12-24T02:16:03,42.805,6.029,0.009,-0.017,0.0,101.0,103.0,99.0,13.4,1505.3,324.7,-0.7,1.8,2470.138,13.33,0.019,152.1
2019-12-24T02:19:03,42.805,6.029,0.043,0.015,0.027,101.0,104.0,98.0,13.4,1505.3,326.2,-0.7,1.8,2470.156,13.33,0.045,70.8
2019-12-24T02:22:03,42.805,6.029,0.042,-0.004,0.005,101.0,104.0,98.0,13.4,1505.3,324.8,-0.7,1.8,2470.151,13.33,0.042,95.4
2019-12-24T02:25:03,42.805,6.029,0.023,-0.015,0.001,101.0,104.0,99.0,13.3,1505.3,326.0,-0.7,1.8,2470.117,13.33,0.027,123.1
2019-12-24T02:28:03,42.805,6.029,0.006,0.008,-0.019,100.0,104.0,98.0,13.4,1505.3,323.4,-0.7,1.8,2470.137,13.33,0.01,36.9
2019-12-24T02:31:03,42.805,6.029,0.004,0.01,-0.035,101.0,104.0,99.0,13.4,1505.3,324.0,-0.7,1.8,2470.133,13.33,0.01,21.8
2019-12-24T02:34:03,42.805,6.029,-0.051,0.029,-0.036,100.0,105.0,98.0,13.4,1505.3,325.9,-0.7,1.8,2470.149,13.33,0.058,299.6
2019-12-24T02:37:03,42.805,6.029,-0.014,0.019,-0.029,101.0,105.0,98.0,13.4,1505.3,323.3,-0.7,1.8,2470.136,13.33,0.023,323.6
2019-12-24T02:40:03,42.805,6.029,0.007,0.018,-0.034,101.0,104.0,99.0,13.3,1505.3,324.0,-0.7,1.8,2470.154,13.33,0.019,21.2
2019-12-24T02:43:03,42.805,6.029,-0.008,0.004,-0.057,100.0,104.0,99.0,13.3,1505.3,323.2,-0.7,1.8,2470.135,13.33,0.008,296.6
2019-12-24T02:46:03,42.805,6.029,-0.043,0.006,-0.104,101.0,104.0,99.0,13.4,1505.3,328.3,-0.7,1.8,2470.19,13.33,0.043,277.9
2019-12-24T02:49:03,42.805,6.029,-0.019,0.01,-0.087,100.0,104.0,98.0,13.4,1505.3,324.8,-0.7,1.8,2470.178,13.33,0.021,297.8
2019-12-24T02:52:03,42.805,6.029,-0.026,0.012,-0.03,100.0,106.0,99.0,13.4,1505.3,325.1,-0.7,1.9,2470.181,13.33,0.028,294.8
2019-12-24T02:55:03,42.805,6.029,-0.035,0.021,-0.066,101.0,104.0,98.0,13.4,1505.3,326.2,-0.7,1.8,2470.165,13.33,0.04,301.0
2019-12-24T02:58:03,42.805,6.029,-0.003,0.009,-0.027,101.0,105.0,98.0,13.3,1505.3,325.6,-0.7,1.8,2470.19,13.33,0.009,341.6
2019-12-24T03:04:03,42.805,6.029,-0.022,-0.002,-0.044,100.0,104.0,99.0,13.3,1505.3,327.2,-0.8,1.8,2470.221,13.31,0.022,264.8
2019-12-24T03:07:03,42.805,6.029,0.019,-0.013,-0.004,101.0,105.0,99.0,13.3,1505.3,324.6,-0.7,1.8,2470.178,13.31,0.023,124.4
2019-12-24T03:10:03,42.805,6.029,0.0,0.0,-0.059,101.0,104.0,99.0,13.4,1505.3,327.2,-0.7,1.8,2470.214,13.32,0.0,0.0
2019-12-24T03:13:03,42.805,6.029,-0.036,-0.013,-0.026,102.0,106.0,99.0,13.4,1505.3,326.4,-0.7,1.8,2470.25,13.32,0.038,250.1
2019-12-24T03:16:03,42.805,6.029,-0.009,-0.03,-0.035,102.0,104.0,99.0,13.3,1505.3,326.5,-0.7,1.8,2470.176,13.32,0.031,196.7
2019-12-24T03:19:03,42.805,6.029,-0.001,-0.008,-0.04,101.0,105.0,97.0,13.4,1505.3,325.0,-0.7,1.9,2470.24,13.32,0.008,187.1
2019-12-24T03:22:03,42.805,6.029,0.0,-0.014,-0.027,100.0,104.0,100.0,13.3,1505.3,324.8,-0.7,1.8,2470.222,13.33,0.014,180.0
2019-12-24T03:25:03,42.805,6.029,-0.02,0.0,-0.029,102.0,104.0,98.0,13.4,1505.3,326.4,-0.7,1.8,2470.209,13.33,0.02,270.0
2019-12-24T03:28:03,42.805,6.029,0.021,-0.01,0.003,101.0,102.0,98.0,13.4,1505.3,325.4,-0.7,1.8,2470.23,13.33,0.023,115.5
2019-12-24T03:31:03,42.805,6.029,-0.025,-0.012,-0.038,100.0,104.0,98.0,13.3,1505.3,326.8,-0.7,1.9,2470.26,13.33,0.027,244.4
2019-12-24T03:34:03,42.805,6.029,-0.011,-0.008,-0.031,101.0,103.0,99.0,13.3,1505.3,325.0,-0.7,1.8,2470.245,13.32,0.013,234.0
2019-12-24T03:37:03,42.805,6.029,-0.019,0.003,0.0,103.0,103.0,99.0,13.4,1505.3,323.4,-0.7,1.9,2470.197,13.32,0.019,279.0
2019-12-24T03:40:03,42.805,6.029,-0.033,-0.009,-0.028,101.0,103.0,99.0,13.3,1505.3,323.6,-0.7,1.8,2470.21,13.33,0.034,254.7
2019-12-24T03:43:03,42.805,6.029,-0.009,-0.007,-0.007,101.0,102.0,99.0,13.4,1505.3,326.0,-0.7,1.8,2470.212,13.33,0.011,232.1
2019-12-24T03:46:03,42.805,6.029,-0.017,-0.002,0.0,103.0,101.0,98.0,13.4,1505.3,323.0,-0.7,1.8,2470.224,13.32,0.017,263.3
2019-12-24T03:49:03,42.805,6.029,-0.037,0.008,-0.006,102.0,104.0,99.0,13.3,1505.3,323.7,-0.7,1.8,2470.215,13.32,0.037,282.2
2019-12-24T03:52:03,42.805,6.029,-0.019,-0.017,-0.02,101.0,103.0,99.0,13.4,1505.3,323.2,-0.7,1.9,2470.241,13.32,0.025,228.2
2019-12-24T03:55:03,42.805,6.029,-0.038,-0.003,-0.04,102.0,103.0,99.0,13.4,1505.3,324.4,-0.7,1.9,2470.247,13.32,0.038,265.5
2019-12-24T03:58:03,42.805,6.029,-0.015,0.004,-0.034,99.0,103.0,99.0,13.4,1505.3,325.5,-0.7,1.9,2470.267,13.32,0.015,284.9
2019-12-24T04:04:03,42.805,6.029,-0.039,0.006,-0.006,101.0,103.0,99.0,13.4,1505.2,326.0,-0.8,1.8,2470.24,13.3,0.039,278.7
2019-12-24T04:07:03,42.805,6.029,-0.03,-0.012,-0.042,100.0,103.0,98.0,13.4,1505.3,326.1,-0.7,1.8,2470.257,13.31,0.032,248.2
2019-12-24T04:10:03,42.805,6.029,-0.038,-0.009,-0.029,100.0,103.0,98.0,13.3,1505.3,325.3,-0.7,1.8,2470.245,13.32,0.039,256.7
2019-12-24T04:13:03,42.805,6.029,-0.015,-0.014,-0.029,101.0,103.0,99.0,13.3,1505.3,325.5,-0.7,1.8,2470.321,13.32,0.02,227.0
2019-12-24T04:16:03,42.805,6.029,-0.006,-0.009,-0.045,102.0,103.0,99.0,13.4,1505.3,327.1,-0.7,1.8,2470.292,13.32,0.01,213.7
2019-12-24T04:19:03,42.805,6.029,-0.023,-0.005,-0.028,102.0,104.0,99.0,13.4,1505.3,326.2,-0.7,1.8,2470.258,13.32,0.023,257.7
2019-12-24T04:22:03,42.805,6.029,-0.001,-0.018,-0.034,100.0,103.0,101.0,13.4,1505.3,324.1,-0.7,1.8,2470.289,13.32,0.018,183.2
2019-12-24T04:25:03,42.805,6.029,-0.005,-0.001,-0.013,100.0,105.0,99.0,13.4,1505.3,328.3,-0.7,1.8,2470.247,13.32,0.005,258.7
2019-12-24T04:28:03,42.805,6.029,-0.046,0.012,-0.058,101.0,104.0,99.0,13.3,1505.3,326.3,-0.7,1.8,2470.292,13.32,0.047,284.6
2019-12-24T04:31:03,42.805,6.029,0.006,-0.012,0.008,101.0,104.0,99.0,13.4,1505.3,325.4,-0.7,1.8,2470.255,13.33,0.013,153.4
2019-12-24T04:34:03,42.805,6.029,-0.01,-0.024,-0.034,101.0,105.0,99.0,13.3,1505.3,324.5,-0.7,1.8,2470.309,13.33,0.026,202.6
2019-12-24T04:37:03,42.805,6.029,-0.001,-0.011,-0.028,102.0,105.0,98.0,13.4,1505.3,328.5,-0.8,1.8,2470.284,13.33,0.011,185.2
2019-12-24T04:40:03,42.805,6.029,0.014,-0.001,0.005,102.0,102.0,98.0,13.3,1505.3,328.1,-0.6,1.8,2470.253,13.33,0.014,94.1
2019-12-24T04:43:03,42.805,6.029,-0.03,0.015,-0.033,101.0,103.0,98.0,13.4,1505.3,328.5,-0.7,1.8,2470.265,13.33,0.033,296.6
2019-12-24T04:46:03,42.805,6.029,-0.022,-0.006,-0.03,100.0,104.0,99.0,13.3,1505.3,325.3,-0.7,1.8,2470.295,13.33,0.022,254.7
2019-12-24T04:49:03,42.805,6.029,-0.026,-0.007,-0.029,101.0,103.0,99.0,13.3,1505.3,326.4,-0.7,1.8,2470.258,13.32,0.026,254.9
2019-12-24T04:52:03,42.805,6.029,-0.043,-0.004,-0.001,100.0,104.0,99.0,13.3,1505.3,323.8,-0.7,1.8,2470.309,13.33,0.043,264.7
2019-12-24T04:55:03,42.805,6.029,-0.043,-0.009,-0.07,100.0,105.0,99.0,13.3,1505.3,324.8,-0.7,1.8,2470.321,13.32,0.043,258.2
2019-12-24T04:58:03,42.805,6.029,-0.047,-0.004,-0.034,101.0,105.0,98.0,13.4,1505.3,327.8,-0.7,1.8,2470.338,13.33,0.047,265.1
2019-12-24T05:04:03,42.805,6.029,-0.02,-0.001,-0.03,101.0,104.0,99.0,13.4,1505.3,326.5,-0.7,1.8,2470.333,13.31,0.02,267.1
2019-12-24T05:07:03,42.805,6.029,-0.017,0.003,-0.049,101.0,104.0,99.0,13.4,1505.3,325.0,-0.7,1.8,2470.3,13.31,0.017,280.0
2019-12-24T05:10:03,42.805,6.029,-0.033,-0.006,-0.042,101.0,103.0,99.0,13.4,1505.3,326.4,-0.7,1.8,2470.299,13.32,0.033,259.7
2019-12-24T05:13:03,42.805,6.029,-0.006,-0.005,-0.051,101.0,104.0,99.0,13.4,1505.3,326.5,-0.7,1.8,2470.333,13.32,0.007,230.2
2019-12-24T05:16:03,42.805,6.029,-0.023,0.004,-0.058,101.0,104.0,98.0,13.4,1505.3,326.5,-0.7,1.8,2470.367,13.32,0.023,279.9
2019-12-24T05:19:03,42.805,6.029,-0.017,0.017,0.004,100.0,107.0,99.0,13.3,1505.3,326.8,-0.7,1.8,2470.312,13.32,0.024,315.0
2019-12-24T05:22:03,42.805,6.029,-0.004,0.004,-0.003,101.0,105.0,99.0,13.4,1505.3,327.2,-0.7,1.8,2470.285,13.32,0.005,315.0
2019-12-24T05:25:03,42.805,6.029,-0.007,0.0,-0.002,102.0,105.0,99.0,13.4,1505.3,326.3,-0.7,1.8,2470.335,13.32,0.007,270.0
2019-12-24T05:28:03,42.805,6.029,-0.019,-0.004,-0.024,102.0,104.0,99.0,13.4,1505.3,325.3,-0.7,1.8,2470.29,13.32,0.019,258.1
2019-12-24T05:31:03,42.805,6.029,-0.002,0.0,0.008,103.0,103.0,99.0,13.3,1505.3,324.2,-0.7,1.8,2470.314,13.33,0.002,270.0
2019-12-24T05:34:03,42.805,6.029,-0.008,-0.007,-0.02,102.0,104.0,99.0,13.4,1505.3,324.7,-0.7,1.8,2470.334,13.33,0.01,228.8
2019-12-24T05:37:03,42.805,6.029,-0.008,0.013,-0.039,101.0,103.0,99.0,13.4,1505.3,327.0,-0.7,1.8,2470.333,13.33,0.015,328.4
2019-12-24T05:40:03,42.805,6.029,0.005,-0.006,-0.002,102.0,104.0,99.0,13.4,1505.3,325.5,-0.7,1.8,2470.288,13.33,0.007,140.2
2019-12-24T05:43:03,42.805,6.029,-0.025,0.013,-0.058,100.0,106.0,99.0,13.4,1505.3,327.8,-0.7,1.8,2470.34,13.33,0.028,297.5
2019-12-24T05:46:03,42.805,6.029,-0.011,0.012,-0.052,101.0,105.0,99.0,13.4,1505.3,325.9,-0.7,1.8,2470.295,13.33,0.016,317.5
2019-12-24T05:49:03,42.805,6.029,-0.01,0.001,-0.039,101.0,105.0,99.0,13.4,1505.3,325.6,-0.7,1.8,2470.357,13.33,0.01,275.7
2019-12-24T05:52:03,42.805,6.029,-0.021,-0.014,-0.028,101.0,105.0,102.0,13.4,1505.3,326.5,-0.7,1.8,2470.335,13.33,0.025,236.3
2019-12-24T05:55:03,42.805,6.029,-0.032,0.001,-0.037,102.0,104.0,99.0,13.4,1505.3,327.2,-0.7,1.8,2470.353,13.33,0.032,271.8
2019-12-24T05:58:03,42.805,6.029,0.014,0.016,-0.03,102.0,104.0,99.0,13.3,1505.3,324.2,-0.7,1.8,2470.293,13.33,0.021,41.2
2019-12-24T06:04:03,42.805,6.029,-0.036,-0.001,-0.056,102.0,103.0,99.0,13.4,1505.3,326.0,-0.7,1.8,2470.373,13.31,0.036,268.4
2019-12-24T06:07:03,42.805,6.029,-0.044,0.01,-0.012,101.0,105.0,99.0,13.4,1505.3,328.0,-0.8,1.8,2470.402,13.31,0.045,282.8
2019-12-24T06:10:03,42.805,6.029,-0.012,-0.021,-0.056,100.0,104.0,98.0,13.3,1505.3,325.3,-0.7,1.9,2470.345,13.32,0.024,209.7
2019-12-24T06:13:03,42.805,6.029,-0.008,-0.014,-0.021,101.0,102.0,99.0,13.4,1505.3,326.0,-0.7,1.8,2470.364,13.32,0.016,209.7
2019-12-24T06:16:03,42.805,6.029,-0.033,-0.018,-0.06,102.0,104.0,99.0,13.4,1505.3,323.7,-0.7,1.8,2470.378,13.32,0.037,241.4
2019-12-24T06:19:03,42.805,6.029,0.007,-0.014,-0.016,101.0,102.0,99.0,13.4,1505.3,326.7,-0.7,1.8,2470.329,13.32,0.015,153.4
2019-12-24T06:22:02,42.805,6.029,-0.011,-0.018,-0.031,101.0,104.0,100.0,13.3,1505.3,323.9,-0.7,1.8,2470.344,13.32,0.021,211.4
2019-12-24T06:25:03,42.805,6.029,-0.028,-0.009,-0.054,102.0,104.0,99.0,13.4,1505.3,324.9,-0.7,1.8,2470.333,13.32,0.029,252.2
2019-12-24T06:28:03,42.805,6.029,-0.002,0.0,-0.057,100.0,104.0,99.0,13.4,1505.3,323.0,-0.7,1.9,2470.32,13.32,0.002,270.0
2019-12-24T06:31:03,42.805,6.029,-0.021,0.018,-0.047,101.0,105.0,98.0,13.4,1505.3,324.1,-0.7,1.8,2470.348,13.33,0.027,310.6
2019-12-24T06:34:03,42.805,6.029,-0.038,-0.01,-0.047,102.0,103.0,99.0,13.3,1505.3,327.2,-0.7,1.8,2470.353,13.32,0.039,255.3
2019-12-24T06:37:03,42.805,6.029,-0.015,0.001,-0.037,101.0,103.0,99.0,13.4,1505.3,328.2,-0.7,1.8,2470.346,13.32,0.015,273.8
2019-12-24T06:40:03,42.805,6.029,-0.018,0.004,-0.008,101.0,102.0,99.0,13.4,1505.3,326.9,-0.7,1.8,2470.336,13.32,0.018,282.5
2019-12-24T06:43:03,42.805,6.029,-0.02,0.002,0.0,101.0,104.0,98.0,13.3,1505.3,325.6,-0.7,1.8,2470.35,13.32,0.02,275.7
2019-12-24T06:46:03,42.805,6.029,-0.038,-0.001,-0.042,100.0,105.0,99.0,13.4,1505.3,327.5,-0.7,1.8,2470.374,13.32,0.038,268.5
2019-12-24T06:49:03,42.805,6.029,0.0,-0.01,0.0,101.0,104.0,99.0,13.4,1505.3,325.0,-0.7,1.8,2470.336,13.32,0.01,180.0
2019-12-24T06:52:03,42.805,6.029,-0.024,0.016,0.004,100.0,104.0,99.0,13.3,1505.3,326.9,-0.7,1.8,2470.309,13.32,0.028,303.7
2019-12-24T06:55:03,42.805,6.029,-0.015,0.0,-0.035,101.0,103.0,99.0,13.4,1505.3,325.1,-0.7,1.8,2470.315,13.33,0.015,270.0
2019-12-24T06:58:03,42.805,6.029,-0.019,0.029,-0.021,100.0,104.0,100.0,13.4,1505.3,324.3,-0.7,1.8,2470.318,13.32,0.034,326.8
2019-12-24T07:04:03,42.805,6.029,-0.012,0.004,0.005,101.0,104.0,99.0,13.3,1505.3,326.4,-0.8,1.8,2470.402,13.31,0.012,288.4
2019-12-24T07:07:03,42.805,6.029,-0.035,0.023,0.004,103.0,104.0,99.0,13.4,1505.3,323.2,-0.7,1.9,2470.372,13.31,0.041,303.3
2019-12-24T07:10:03,42.805,6.029,-0.01,0.003,-0.02,101.0,104.0,99.0,13.4,1505.3,323.6,-0.7,1.8,2470.326,13.32,0.01,286.7
2019-12-24T07:13:03,42.805,6.029,-0.024,-0.009,-0.039,102.0,103.0,98.0,13.4,1505.3,324.1,-0.7,1.8,2470.363,13.32,0.025,249.4
2019-12-24T07:16:03,42.805,6.029,-0.022,0.012,-0.033,102.0,105.0,99.0,13.4,1505.3,328.1,-0.7,1.8,2470.357,13.32,0.025,298.6
2019-12-24T07:19:03,42.805,6.029,-0.03,0.02,0.0,101.0,103.0,99.0,13.4,1505.3,324.9,-0.7,1.8,2470.355,13.32,0.036,303.7
2019-12-24T07:22:03,42.805,6.029,0.004,0.011,-0.018,102.0,104.0,99.0,13.4,1505.3,325.4,-0.7,1.8,2470.343,13.33,0.011,20.0
2019-12-24T07:25:03,42.805,6.029,-0.016,-0.003,-0.025,99.0,105.0,99.0,13.4,1505.3,326.1,-0.7,1.9,2470.379,13.33,0.016,259.4
2019-12-24T07:28:03,42.805,6.029,-0.02,0.025,-0.031,101.0,105.0,98.0,13.3,1505.3,323.3,-0.7,1.8,2470.332,13.32,0.032,321.3
2019-12-24T07:31:03,42.805,6.029,-0.013,0.005,-0.017,101.0,104.0,98.0,13.4,1505.3,326.4,-0.7,1.8,2470.346,13.32,0.013,291.0
2019-12-24T07:34:03,42.805,6.029,-0.024,-0.003,-0.008,101.0,103.0,98.0,13.3,1505.3,323.5,-0.7,1.9,2470.308,13.33,0.024,262.9
2019-12-24T07:37:03,42.805,6.029,-0.007,0.018,0.008,101.0,104.0,99.0,13.4,1505.3,324.2,-0.7,1.8,2470.31,13.33,0.019,338.8
2019-12-24T07:40:03,42.805,6.029,-0.026,0.0,-0.027,102.0,104.0,98.0,13.4,1505.3,324.8,-0.7,1.8,2470.348,13.33,0.026,270.0
2019-12-24T07:43:03,42.805,6.029,-0.01,0.019,-0.015,101.0,103.0,99.0,13.4,1505.3,324.5,-0.7,1.8,2470.32,13.33,0.021,332.2
2019-12-24T07:46:03,42.805,6.029,-0.027,0.003,-0.042,101.0,104.0,99.0,13.3,1505.3,324.2,-0.7,1.8,2470.352,13.33,0.027,276.3
2019-12-24T07:49:03,42.805,6.029,0.016,0.014,-0.031,101.0,105.0,99.0,13.4,1505.3,324.6,-0.7,1.8,2470.382,13.33,0.021,48.8
2019-12-24T07:52:03,42.805,6.029,0.027,0.02,-0.007,102.0,105.0,98.0,13.3,1505.3,326.1,-0.7,1.8,2470.315,13.33,0.033,53.5
2019-12-24T07:55:03,42.805,6.029,-0.015,0.005,-0.017,101.0,105.0,99.0,13.3,1505.3,325.4,-0.7,1.8,2470.283,13.33,0.015,288.4
2019-12-24T07:58:03,42.805,6.029,0.008,0.007,0.002,101.0,105.0,100.0,13.4,1505.3,326.5,-0.7,1.8,2470.316,13.33,0.01,48.8
2019-12-24T08:04:03,42.805,6.029,-0.006,0.009,-0.027,102.0,104.0,98.0,13.3,1505.3,327.3,-0.7,1.9,2470.331,13.31,0.01,326.3
2019-12-24T08:07:03,42.805,6.029,-0.007,0.009,-0.044,101.0,104.0,99.0,13.4,1505.3,324.7,-0.7,1.8,2470.34,13.31,0.011,322.1
2019-12-24T08:10:03,42.805,6.029,0.024,0.022,-0.013,100.0,105.0,99.0,13.4,1505.3,324.9,-0.7,1.8,2470.351,13.32,0.032,47.5
2019-12-24T08:13:03,42.805,6.029,0.026,0.028,-0.009,100.0,106.0,99.0,13.4,1505.3,325.8,-0.7,1.8,2470.363,13.32,0.038,42.9
2019-12-24T08:16:03,42.805,6.029,-0.014,0.004,-0.009,101.0,106.0,99.0,13.4,1505.3,323.9,-0.8,1.8,2470.341,13.33,0.014,285.9
2019-12-24T08:19:03,42.805,6.029,0.025,0.026,0.014,102.0,105.0,99.0,13.4,1505.3,327.1,-0.7,1.8,2470.327,13.33,0.036,43.9
2019-12-24T08:22:03,42.805,6.029,0.003,0.006,-0.01,101.0,105.0,100.0,13.4,1505.3,326.9,-0.7,1.8,2470.371,13.33,0.006,26.6
2019-12-24T08:25:03,42.805,6.029,-0.011,0.019,-0.015,101.0,105.0,99.0,13.4,1505.3,327.6,-0.7,1.8,2470.31,13.33,0.021,329.9
2019-12-24T08:28:03,42.805,6.029,0.018,-0.005,-0.008,101.0,103.0,99.0,13.4,1505.3,327.3,-0.7,1.8,2470.314,13.33,0.018,105.5
2019-12-24T08:31:03,42.805,6.029,-0.03,0.019,-0.042,102.0,103.0,100.0,13.3,1505.3,326.0,-0.7,1.8,2470.347,13.33,0.035,302.3
2019-12-24T08:34:03,42.805,6.029,-0.005,0.005,-0.006,102.0,104.0,99.0,13.3,1505.3,324.0,-0.7,1.8,2470.305,13.33,0.007,315.0
2019-12-24T08:37:03,42.805,6.029,-0.006,0.032,-0.027,101.0,104.0,98.0,13.4,1505.3,327.1,-0.7,1.9,2470.308,13.33,0.032,349.4
2019-12-24T08:40:03,42.805,6.029,-0.031,0.002,-0.042,100.0,103.0,99.0,13.4,1505.3,323.6,-0.8,1.8,2470.316,13.33,0.031,273.7
2019-12-24T08:43:03,42.805,6.029,-0.003,0.002,-0.036,102.0,103.0,100.0,13.4,1505.3,327.9,-0.7,1.8,2470.335,13.33,0.003,303.7
2019-12-24T08:46:03,42.805,6.029,-0.026,0.013,-0.018,101.0,103.0,99.0,13.4,1505.3,326.8,-0.7,1.8,2470.298,13.33,0.029,296.6
2019-12-24T08:52:02,42.805,6.029,-0.037,0.0,-0.059,101.0,105.0,98.0,13.4,1505.3,325.5,-0.7,1.8,2470.337,13.31,0.037,270.0
2019-12-24T08:55:03,42.805,6.029,0.013,0.016,0.026,100.0,105.0,99.0,13.4,1505.3,325.6,-0.7,1.8,2470.324,13.32,0.02,39.1
2019-12-24T08:58:03,42.805,6.029,0.039,0.033,0.04,100.0,104.0,99.0,13.4,1505.3,328.3,-0.7,1.8,2470.313,13.32,0.051,49.8
2019-12-24T09:04:03,42.805,6.029,-0.045,0.02,-0.05,102.0,104.0,98.0,13.4,1505.3,325.7,-0.7,1.8,2470.341,13.31,0.049,294.0
2019-12-24T09:07:03,42.805,6.029,0.008,0.018,0.019,102.0,105.0,99.0,13.4,1505.3,325.7,-0.7,1.8,2470.326,13.31,0.019,24.0
2019-12-24T09:10:03,42.805,6.029,0.02,0.022,-0.007,103.0,104.0,99.0,13.4,1505.3,325.0,-0.7,1.8,2470.306,13.32,0.029,42.3
2019-12-24T09:13:03,42.805,6.029,-0.002,0.011,0.002,102.0,105.0,99.0,13.3,1505.3,325.2,-0.7,1.9,2470.332,13.32,0.011,349.7
2019-12-24T09:16:03,42.805,6.029,0.025,-0.014,0.002,102.0,106.0,98.0,13.4,1505.3,324.2,-0.7,1.8,2470.3,13.33,0.028,119.3
2019-12-24T09:19:03,42.805,6.029,0.001,0.011,-0.004,100.0,106.0,100.0,13.4,1505.3,325.9,-0.7,1.8,2470.35,13.33,0.011,5.2
2019-12-24T09:22:03,42.805,6.029,-0.016,0.031,-0.067,100.0,105.0,98.0,13.4,1505.3,325.3,-0.7,1.8,2470.307,13.33,0.034,332.7
2019-12-24T09:25:03,42.805,6.029,0.006,0.012,-0.024,100.0,105.0,98.0,13.4,1505.3,326.0,-0.7,1.8,2470.335,13.33,0.013,26.6
2019-12-24T09:28:03,42.805,6.029,-0.031,0.034,-0.008,102.0,104.0,99.0,13.4,1505.3,325.0,-0.7,1.8,2470.292,13.33,0.046,317.6
2019-12-24T09:31:03,42.805,6.029,-0.014,0.019,-0.028,101.0,103.0,100.0,13.4,1505.3,325.2,-0.7,1.8,2470.237,13.33,0.023,323.6
2019-12-24T09:34:03,42.805,6.029,-0.015,0.032,0.014,101.0,104.0,98.0,13.4,1505.3,323.2,-0.7,1.8,2470.293,13.33,0.035,334.9
2019-12-24T09:37:03,42.805,6.029,-0.029,0.025,-0.046,100.0,106.0,100.0,13.3,1505.3,328.2,-0.7,1.8,2470.313,13.33,0.038,310.8
2019-12-24T09:40:03,42.805,6.029,-0.022,0.036,-0.034,101.0,107.0,99.0,13.4,1505.3,324.3,-0.7,1.8,2470.302,13.33,0.042,328.6
2019-12-24T09:43:03,42.805,6.029,-0.035,0.008,-0.078,101.0,106.0,99.0,13.3,1505.3,324.1,-0.7,1.8,2470.28,13.33,0.035,282.9
2019-12-24T09:46:03,42.805,6.029,-0.02,0.046,-0.027,102.0,105.0,99.0,13.3,1505.3,325.9,-0.7,1.9,2470.303,13.33,0.05,336.5
2019-12-24T09:49:03,42.805,6.029,-0.005,0.035,-0.027,102.0,105.0,98.0,13.3,1505.3,327.4,-0.7,1.8,2470.282,13.33,0.035,351.9
2019-12-24T09:52:03,42.805,6.029,-0.001,0.029,-0.029,101.0,105.0,99.0,13.4,1505.3,323.2,-0.7,1.8,2470.277,13.33,0.029,358.0
2019-12-24T09:55:03,42.805,6.029,-0.027,-0.004,-0.053,101.0,106.0,99.0,13.4,1505.3,325.9,-0.7,1.8,2470.319,13.33,0.027,261.6
2019-12-24T09:58:03,42.805,6.029,-0.017,0.0,-0.031,101.0,105.0,99.0,13.4,1505.3,324.6,-0.7,1.8,2470.285,13.33,0.017,270.0
2019-12-24T10:04:03,42.805,6.029,-0.024,0.04,-0.035,102.0,104.0,98.0,13.4,1505.3,323.5,-0.8,1.9,2470.348,13.31,0.046,329.0
2019-12-24T10:07:03,42.805,6.029,0.012,0.051,0.015,101.0,106.0,97.0,13.4,1505.3,323.5,-0.7,1.9,2470.307,13.32,0.052,13.2
2019-12-24T10:10:03,42.805,6.029,0.001,0.021,-0.014,102.0,106.0,98.0,13.4,1505.3,325.3,-0.7,1.8,2470.263,13.32,0.021,2.7